| time (UTC) | temp F | wind direction | speed knots | gust knots | rain 1hr in | rain 24hr in | rain mn in | humidity % | barometer mb |
| 20260504081841 | 50 | 294 | 0.0 | 0.0 | 0.00 | 0.00 | 0.00 | 99 | 1019.3 |
| 20260504081338 | 50 | 294 | 0.0 | 0.0 | 0.00 | 0.00 | 0.00 | 99 | 1019.4 |
| 20260504080833 | 50 | 294 | 0.0 | 0.0 | 0.00 | 0.00 | 0.00 | 99 | 1019.1 |
| 20260504080331 | 50 | 294 | 0.0 | 0.0 | 0.00 | 0.00 | 0.00 | 99 | 1019.3 |
| 20260504070258 | 51 | 284 | 0.0 | 0.0 | 0.00 | 0.00 | 0.00 | 99 | 1019.6 |
| 20260504060219 | 52 | 286 | 0.0 | 0.0 | 0.00 | 0.00 | 0.00 | 98 | 1020.3 |
| 20260504050646 | 53 | 301 | 0.0 | 0.0 | 0.00 | 0.00 | 0.00 | 98 | 1020.3 |
| 20260504050143 | 53 | 301 | 0.0 | 0.0 | 0.00 | 0.00 | 0.00 | 98 | 1020.5 |
| 20260504045641 | 53 | 301 | 0.0 | 0.0 | 0.00 | 0.00 | 0.00 | 97 | 1020.4 |
| 20260504045140 | 53 | 301 | 0.0 | 0.0 | 0.00 | 0.00 | 0.00 | 97 | 1020.4 |
| 20260504044638 | 53 | 301 | 0.0 | 0.0 | 0.00 | 0.00 | 0.00 | 97 | 1020.4 |
| 20260504044135 | 53 | 301 | 0.0 | 0.0 | 0.00 | 0.00 | 0.00 | 97 | 1020.5 |
| 20260504043632 | 53 | 301 | 0.0 | 0.0 | 0.00 | 0.00 | 0.00 | 97 | 1020.4 |
| 20260504043129 | 53 | 301 | 0.0 | 0.0 | 0.00 | 0.00 | 0.00 | 96 | 1020.8 |
| 20260504042626 | 54 | 301 | 0.0 | 0.0 | 0.00 | 0.00 | 0.00 | 96 | 1020.5 |
| 20260504042123 | 54 | 301 | 0.0 | 0.0 | 0.00 | 0.00 | 0.00 | 96 | 1020.5 |
| 20260504041619 | 54 | 302 | 0.0 | 0.0 | 0.00 | 0.00 | 0.00 | 96 | 1020.6 |
| 20260504041115 | 54 | 291 | 0.0 | 0.0 | 0.00 | 0.00 | 0.00 | 96 | 1020.7 |
| 20260504040613 | 54 | 301 | 0.0 | 0.0 | 0.00 | 0.00 | 0.00 | 95 | 1020.6 |
| 20260504040109 | 55 | 301 | 0.0 | 0.0 | 0.00 | 0.00 | 0.00 | 95 | 1020.7 |
| 20260504035606 | 55 | 301 | 0.0 | 0.0 | 0.00 | 0.00 | 0.00 | 94 | 1020.7 |
| 20260504035102 | 55 | 301 | 0.0 | 0.0 | 0.00 | 0.00 | 0.00 | 93 | 1020.7 |
| 20260504034600 | 55 | 301 | 0.0 | 0.0 | 0.00 | 0.00 | 0.00 | 93 | 1020.6 |
| 20260504034057 | 55 | 301 | 0.0 | 0.0 | 0.00 | 0.00 | 0.00 | 92 | 1020.5 |
| 20260504033555 | 55 | 285 | 0.0 | 0.0 | 0.00 | 0.00 | 0.00 | 93 | 1020.8 |
| 20260504033052 | 55 | 284 | 0.0 | 0.0 | 0.00 | 0.00 | 0.00 | 93 | 1020.6 |
| 20260504032549 | 56 | 285 | 0.0 | 0.0 | 0.00 | 0.00 | 0.00 | 93 | 1020.6 |
| 20260504032046 | 56 | 285 | 0.0 | 0.0 | 0.00 | 0.00 | 0.00 | 93 | 1020.7 |
| 20260504031543 | 56 | 285 | 0.0 | 0.0 | 0.00 | 0.00 | 0.00 | 92 | 1020.6 |
| 20260504031039 | 56 | 276 | 0.0 | 0.0 | 0.00 | 0.00 | 0.00 | 92 | 1020.4 |
| 20260504030536 | 56 | 276 | 0.0 | 0.0 | 0.00 | 0.00 | 0.00 | 92 | 1020.8 |
| 20260504030032 | 56 | 273 | 0.0 | 0.0 | 0.00 | 0.00 | 0.00 | 92 | 1020.3 |
| 20260504025530 | 56 | 270 | 0.0 | 0.0 | 0.00 | 0.00 | 0.00 | 91 | 1020.4 |
| 20260504025026 | 57 | 270 | 0.0 | 0.0 | 0.00 | 0.00 | 0.00 | 91 | 1020.5 |
| 20260504024523 | 57 | 278 | 0.0 | 0.0 | 0.00 | 0.00 | 0.00 | 91 | 1020.4 |
| 20260504024020 | 57 | 282 | 0.0 | 0.0 | 0.00 | 0.00 | 0.00 | 91 | 1020.1 |
| 20260504023517 | 57 | 282 | 0.0 | 0.0 | 0.00 | 0.00 | 0.00 | 90 | 1020.3 |
| 20260504023013 | 57 | 277 | 0.0 | 0.0 | 0.00 | 0.00 | 0.00 | 90 | 1020.3 |
| 20260504022509 | 57 | 277 | 0.0 | 0.0 | 0.00 | 0.00 | 0.00 | 90 | 1020.4 |
| 20260504022006 | 57 | 197 | 0.0 | 0.0 | 0.00 | 0.00 | 0.00 | 89 | 1020.0 |
| 20260504021503 | 58 | 197 | 0.0 | 0.9 | 0.00 | 0.00 | 0.00 | 89 | 1020.0 |
| 20260504021000 | 58 | 197 | 0.0 | 0.0 | 0.00 | 0.00 | 0.00 | 88 | 1020.1 |
| 20260504020456 | 58 | 197 | 0.0 | 0.0 | 0.00 | 0.00 | 0.00 | 87 | 1019.9 |
| 20260504015953 | 59 | 197 | 0.0 | 0.0 | 0.00 | 0.00 | 0.00 | 85 | 1020.0 |
| 20260504015449 | 60 | 197 | 0.0 | 0.0 | 0.00 | 0.00 | 0.00 | 83 | 1019.9 |
| 20260504014945 | 61 | 196 | 0.0 | 0.0 | 0.00 | 0.00 | 0.00 | 82 | 1019.8 |
| 20260504014441 | 61 | 196 | 0.9 | 0.9 | 0.00 | 0.00 | 0.00 | 80 | 1019.9 |
| 20260504013938 | 60 | 227 | 0.9 | 1.7 | 0.00 | 0.00 | 0.00 | 82 | 1019.9 |
| 20260504013437 | 58 | 234 | 0.0 | 0.9 | 0.00 | 0.00 | 0.00 | 85 | 1019.6 |
| 20260504012932 | 58 | 295 | 0.0 | 0.0 | 0.00 | 0.00 | 0.00 | 87 | 1019.5 |
| 20260504012431 | 59 | 295 | 0.0 | 0.0 | 0.00 | 0.00 | 0.00 | 87 | 1019.4 |
| 20260504011928 | 59 | 295 | 0.0 | 0.0 | 0.00 | 0.00 | 0.00 | 86 | 1019.5 |
| 20260504011425 | 59 | 295 | 0.0 | 0.0 | 0.00 | 0.00 | 0.00 | 87 | 1019.3 |
| 20260504010920 | 60 | 295 | 0.0 | 0.0 | 0.00 | 0.00 | 0.00 | 86 | 1019.4 |
| 20260504010417 | 60 | 295 | 0.0 | 0.0 | 0.00 | 0.00 | 0.00 | 83 | 1019.2 |
| 20260504005913 | 61 | 295 | 0.0 | 0.0 | 0.00 | 0.00 | 0.00 | 84 | 1019.4 |
| 20260504005410 | 61 | 295 | 0.0 | 0.0 | 0.00 | 0.00 | 0.00 | 84 | 1019.3 |
| 20260504004908 | 62 | 291 | 0.0 | 0.0 | 0.00 | 0.00 | 0.00 | 82 | 1019.1 |
| 20260504004405 | 63 | 291 | 0.0 | 0.0 | 0.00 | 0.00 | 0.00 | 81 | 1019.2 |
| 20260504003902 | 63 | 284 | 0.0 | 0.0 | 0.00 | 0.00 | 0.00 | 79 | 1019.2 |
| 20260504003358 | 64 | 282 | 0.0 | 0.9 | 0.00 | 0.00 | 0.00 | 78 | 1019.1 |
| 20260504002855 | 64 | 293 | 0.0 | 0.0 | 0.00 | 0.00 | 0.00 | 76 | 1018.9 |
| 20260504002352 | 66 | 293 | 0.0 | 0.0 | 0.00 | 0.00 | 0.00 | 73 | 1019.1 |
| 20260504001849 | 67 | 293 | 0.0 | 0.0 | 0.00 | 0.00 | 0.00 | 70 | 1018.9 |
| 20260504001347 | 67 | 293 | 0.0 | 0.0 | 0.00 | 0.00 | 0.00 | 68 | 1018.9 |
| 20260504000843 | 68 | 293 | 0.0 | 0.0 | 0.00 | 0.00 | 0.00 | 67 | 1019.0 |
| 20260504000340 | 69 | 293 | 0.0 | 0.0 | 0.00 | 0.00 | 0.00 | 64 | 1019.0 |
| 20260503235838 | 71 | 310 | 0.0 | 0.0 | 0.00 | 0.00 | 0.00 | 61 | 1019.0 |
| 20260503235335 | 73 | 315 | 0.0 | 0.0 | 0.00 | 0.00 | 0.00 | 55 | 1019.0 |
| 20260503234833 | 73 | 315 | 0.0 | 0.0 | 0.00 | 0.00 | 0.00 | 55 | 1019.0 |
| 20260503234330 | 74 | 315 | 0.0 | 0.0 | 0.00 | 0.00 | 0.00 | 52 | 1019.1 |
| 20260503233828 | 74 | 314 | 0.9 | 0.9 | 0.00 | 0.00 | 0.00 | 46 | 1018.9 |
| 20260503233323 | 74 | 324 | 0.0 | 0.0 | 0.00 | 0.00 | 0.00 | 53 | 1018.8 |
| 20260503232820 | 75 | 332 | 0.0 | 0.9 | 0.00 | 0.00 | 0.00 | 46 | 1019.0 |
| 20260503232318 | 76 | 342 | 0.9 | 1.7 | 0.00 | 0.00 | 0.00 | 45 | 1019.2 |
| 20260503231816 | 77 | 288 | 0.0 | 0.0 | 0.00 | 0.00 | 0.00 | 42 | 1019.2 |
| 20260503231312 | 76 | 311 | 0.9 | 0.9 | 0.00 | 0.00 | 0.00 | 46 | 1018.8 |
| 20260503230808 | 75 | 266 | 0.9 | 1.7 | 0.00 | 0.00 | 0.00 | 46 | 1019.1 |
| 20260503230306 | 75 | 298 | 2.6 | 4.3 | 0.00 | 0.00 | 0.00 | 43 | 1019.1 |
| 20260503225803 | 75 | 21 | 1.7 | 2.6 | 0.00 | 0.00 | 0.00 | 45 | 1019.1 |
| 20260503225258 | 76 | 311 | 0.9 | 0.9 | 0.00 | 0.00 | 0.00 | 45 | 1019.2 |
| 20260503224755 | 76 | 275 | 0.9 | 0.9 | 0.00 | 0.00 | 0.00 | 44 | 1019.3 |
| 20260503224253 | 75 | 347 | 0.9 | 1.7 | 0.00 | 0.00 | 0.00 | 43 | 1019.1 |
| 20260503223750 | 76 | 333 | 0.0 | 0.0 | 0.00 | 0.00 | 0.00 | 50 | 1019.3 |
| 20260503223248 | 77 | 317 | 1.7 | 1.7 | 0.00 | 0.00 | 0.00 | 45 | 1019.3 |
| 20260503222743 | 77 | 10 | 1.7 | 1.7 | 0.00 | 0.00 | 0.00 | 43 | 1019.2 |
| 20260503222242 | 75 | 16 | 0.0 | 0.9 | 0.00 | 0.00 | 0.00 | 43 | 1019.2 |
| 20260503221740 | 76 | 358 | 0.9 | 1.7 | 0.00 | 0.00 | 0.00 | 44 | 1019.4 |
| 20260503221237 | 75 | 6 | 0.9 | 0.9 | 0.00 | 0.00 | 0.00 | 45 | 1019.3 |
| 20260503220734 | 76 | 332 | 2.6 | 2.6 | 0.00 | 0.00 | 0.00 | 42 | 1019.5 |
| 20260503220231 | 76 | 1 | 2.6 | 4.3 | 0.00 | 0.00 | 0.00 | 42 | 1019.7 |
| 20260503215727 | 77 | 4 | 2.6 | 2.6 | 0.00 | 0.00 | 0.00 | 45 | 1019.5 |
| 20260503215224 | 77 | 337 | 3.5 | 5.2 | 0.00 | 0.00 | 0.00 | 43 | 1019.6 |
| 20260503214723 | 77 | 240 | 1.7 | 1.7 | 0.00 | 0.00 | 0.00 | 42 | 1019.5 |
| 20260503214219 | 77 | 335 | 3.5 | 5.2 | 0.00 | 0.00 | 0.00 | 42 | 1019.5 |
| 20260503213717 | 76 | 304 | 1.7 | 2.6 | 0.00 | 0.00 | 0.00 | 43 | 1019.6 |
| 20260503213214 | 76 | 309 | 2.6 | 2.6 | 0.00 | 0.00 | 0.00 | 41 | 1019.7 |
| 20260503212711 | 77 | 330 | 1.7 | 2.6 | 0.00 | 0.00 | 0.00 | 40 | 1019.7 |
| 20260503212209 | 78 | 267 | 1.7 | 2.6 | 0.00 | 0.00 | 0.00 | 42 | 1019.7 |
| 20260503211706 | 77 | 264 | 0.9 | 0.9 | 0.00 | 0.00 | 0.00 | 41 | 1019.7 |
| 20260503211202 | 76 | 299 | 1.7 | 1.7 | 0.00 | 0.00 | 0.00 | 42 | 1020.1 |
| 20260503210657 | 76 | 336 | 4.3 | 5.2 | 0.00 | 0.00 | 0.00 | 42 | 1020.0 |
| 20260503210155 | 76 | 245 | 1.7 | 1.7 | 0.00 | 0.00 | 0.00 | 43 | 1020.1 |
| 20260503205650 | 77 | 314 | 2.6 | 2.6 | 0.00 | 0.00 | 0.00 | 43 | 1020.0 |
| 20260503205146 | 76 | 265 | 0.9 | 0.9 | 0.00 | 0.00 | 0.00 | 39 | 1020.1 |
| 20260503204643 | 76 | 264 | 0.9 | 0.9 | 0.00 | 0.00 | 0.00 | 43 | 1020.3 |
| 20260503204141 | 75 | 338 | 0.0 | 0.9 | 0.00 | 0.00 | 0.00 | 43 | 1020.4 |
| 20260503203638 | 75 | 22 | 2.6 | 2.6 | 0.00 | 0.00 | 0.00 | 40 | 1020.5 |
| 20260503203136 | 76 | 352 | 2.6 | 2.6 | 0.00 | 0.00 | 0.00 | 42 | 1020.4 |
| 20260503202632 | 77 | 3 | 1.7 | 1.7 | 0.00 | 0.00 | 0.00 | 44 | 1020.6 |
| 20260503202131 | 76 | 276 | 0.9 | 1.7 | 0.00 | 0.00 | 0.00 | 41 | 1020.4 |
| 20260503201629 | 76 | 300 | 0.0 | 0.0 | 0.00 | 0.00 | 0.00 | 39 | 1020.5 |
| 20260503201126 | 76 | 311 | 0.9 | 0.9 | 0.00 | 0.00 | 0.00 | 43 | 1020.7 |
| 20260503200622 | 75 | 311 | 0.0 | 0.9 | 0.00 | 0.00 | 0.00 | 46 | 1020.9 |
| 20260503200118 | 76 | 357 | 1.7 | 2.6 | 0.00 | 0.00 | 0.00 | 42 | 1020.8 |
| 20260503195615 | 75 | 347 | 2.6 | 4.3 | 0.00 | 0.00 | 0.00 | 42 | 1020.9 |
| 20260503195112 | 75 | 351 | 3.5 | 6.1 | 0.00 | 0.00 | 0.00 | 42 | 1021.2 |
| 20260503194609 | 76 | 3 | 0.9 | 1.7 | 0.00 | 0.00 | 0.00 | 40 | 1021.1 |
| 20260503194104 | 76 | 343 | 2.6 | 4.3 | 0.00 | 0.00 | 0.00 | 40 | 1021.2 |
| 20260503193601 | 76 | 333 | 1.7 | 1.7 | 0.00 | 0.00 | 0.00 | 42 | 1021.3 |
| 20260503193056 | 76 | 285 | 1.7 | 2.6 | 0.00 | 0.00 | 0.00 | 42 | 1021.5 |
| 20260503192553 | 76 | 277 | 0.9 | 0.9 | 0.00 | 0.00 | 0.00 | 43 | 1021.4 |
| 20260503192048 | 76 | 299 | 2.6 | 2.6 | 0.00 | 0.00 | 0.00 | 44 | 1021.7 |
| 20260503191545 | 75 | 11 | 3.5 | 4.3 | 0.00 | 0.00 | 0.00 | 43 | 1021.9 |
| 20260503191042 | 75 | 282 | 0.9 | 0.9 | 0.00 | 0.00 | 0.00 | 48 | 1021.7 |
| 20260503190539 | 75 | 35 | 1.7 | 2.6 | 0.00 | 0.00 | 0.00 | 43 | 1022.0 |
| 20260503190037 | 75 | 335 | 2.6 | 2.6 | 0.00 | 0.00 | 0.00 | 42 | 1022.0 |
| 20260503185533 | 76 | 323 | 2.6 | 4.3 | 0.00 | 0.00 | 0.00 | 43 | 1022.2 |
| 20260503185032 | 75 | 270 | 0.9 | 0.9 | 0.00 | 0.00 | 0.00 | 44 | 1022.1 |
| 20260503184529 | 75 | 312 | 0.0 | 0.9 | 0.00 | 0.00 | 0.00 | 42 | 1022.1 |
| 20260503184026 | 73 | 275 | 0.0 | 0.0 | 0.00 | 0.00 | 0.00 | 42 | 1022.1 |
| 20260503183522 | 74 | 357 | 5.2 | 7.0 | 0.00 | 0.00 | 0.00 | 42 | 1022.3 |
| 20260503183019 | 74 | 206 | 3.5 | 5.2 | 0.00 | 0.00 | 0.00 | 42 | 1022.3 |
| 20260503182518 | 74 | 243 | 3.5 | 5.2 | 0.00 | 0.00 | 0.00 | 43 | 1022.3 |
| 20260503182015 | 75 | 317 | 2.6 | 2.6 | 0.00 | 0.00 | 0.00 | 39 | 1022.5 |
| 20260503181512 | 74 | 289 | 1.7 | 2.6 | 0.00 | 0.00 | 0.00 | 44 | 1022.5 |
| 20260503181008 | 74 | 344 | 0.9 | 1.7 | 0.00 | 0.00 | 0.00 | 46 | 1022.5 |
| 20260503180506 | 73 | 259 | 1.7 | 1.7 | 0.00 | 0.00 | 0.00 | 46 | 1022.5 |
| 20260503180003 | 74 | 250 | 2.6 | 2.6 | 0.00 | 0.00 | 0.00 | 43 | 1022.7 |
| 20260503175501 | 73 | 3 | 0.9 | 0.9 | 0.00 | 0.00 | 0.00 | 43 | 1022.7 |
| 20260503174957 | 74 | 167 | 2.6 | 2.6 | 0.00 | 0.00 | 0.00 | 44 | 1023.1 |
| 20260503174455 | 74 | 33 | 2.6 | 2.6 | 0.00 | 0.00 | 0.00 | 44 | 1023.3 |
| 20260503173950 | 73 | 264 | 2.6 | 4.3 | 0.00 | 0.00 | 0.00 | 45 | 1023.2 |
| 20260503173446 | 74 | 339 | 2.6 | 4.3 | 0.00 | 0.00 | 0.00 | 44 | 1023.3 |
| 20260503172943 | 74 | 358 | 1.7 | 1.7 | 0.00 | 0.00 | 0.00 | 47 | 1023.3 |
| 20260503172440 | 73 | 314 | 3.5 | 4.3 | 0.00 | 0.00 | 0.00 | 44 | 1023.3 |
| 20260503171937 | 72 | 284 | 0.9 | 0.9 | 0.00 | 0.00 | 0.00 | 46 | 1023.5 |
| 20260503171433 | 72 | 330 | 0.9 | 1.7 | 0.00 | 0.00 | 0.00 | 44 | 1023.7 |
| 20260503170931 | 72 | 311 | 1.7 | 1.7 | 0.00 | 0.00 | 0.00 | 46 | 1023.6 |
| 20260503170427 | 72 | 300 | 1.7 | 2.6 | 0.00 | 0.00 | 0.00 | 44 | 1023.6 |
| 20260503150819 | 68 | 333 | 1.7 | 1.7 | 0.00 | 0.00 | 0.00 | 55 | 1024.4 |
| 20260503150315 | 68 | 350 | 2.6 | 2.6 | 0.00 | 0.00 | 0.00 | 56 | 1024.1 |
| 20260503140240 | 63 | 339 | 0.0 | 0.9 | 0.00 | 0.00 | 0.00 | 76 | 1024.0 |
| 20260503131209 | 55 | 349 | 2.6 | 2.6 | 0.00 | 0.00 | 0.00 | 87 | 1023.5 |
| 20260503130707 | 54 | 327 | 1.7 | 1.7 | 0.00 | 0.00 | 0.00 | 94 | 1023.4 |
| 20260503130204 | 52 | 333 | 0.0 | 0.0 | 0.00 | 0.00 | 0.00 | 99 | 1023.2 |
| 20260503120130 | 45 | 314 | 0.0 | 0.0 | 0.00 | 0.00 | 0.00 | 99 | 1022.8 |
| 20260503110557 | 44 | 315 | 0.0 | 0.0 | 0.00 | 0.00 | 0.00 | 99 | 1022.0 |